User: anonymous   Login
Location: Podia
(1.5569°N, 32.3469°E)
Time: 15:49:57
(UTC+00:00)
Language:

STARLINK-1172 - Orbit

View from above orbital plane
View from above orbital plane
View from above satellite
View from above satellite

Ground track
Ground track

The orbit data is extracted from the following two-line orbital elements,

1 45074C 20006AG  20225.51055127 -.00002485  00000-0 -17021-3 0  2252
2 45074  53.0000  42.8932 0001404 105.7672 149.1313 15.05583098    12
Epoch (UTC): 12 August 2020 12:15:11
Eccentricity: 0.0001404
inclination: 53.0000°
perigee height: 549 km
apogee height: 550 km
right ascension of ascending node: 42.8932°
argument of perigee: 105.7672°
revolutions per day: 15.05583098
mean anomaly at epoch: 149.1313°
orbit number at epoch: 1

The dashed part of the orbit path shows where the satellite is in the earth's shadow,  

DLR